QPF
0.00 0.00 0.00 0.00 0.01 0.03 0.12 0.20 0.05 0.01 0.00 0.00 0.00 0.00 0.00 0.00 0.00 0.00 0.00 0.00 0.00 0.00 0.00 0.00 0.00 0.00 0.00 0.00 0.00 0.00 0.00 0.00 0.00 0.00 0.00 0.00 0.00 0.00 0.00 0.00 0.00 0.00 0.00 0.00 0.00 0.00 0.00 0.00 0.00
0.00 0.00 0.00 0.00 0.00 0.01 0.14 0.24 0.07 0.01 0.00 0.00 0.00 0.00 0.00 0.00 0.00 0.00 0.00 0.00 0.00 0.00 0.00 0.00 0.00 0.00 0.00 0.01 0.01 0.01 0.00 0.00 0.01 0.01 0.01 0.01 0.00 0.00 0.00 0.00 0.00 0.00 0.00 0.00 0.00 0.00 0.00 0.00 0.00
0.00 0.00 0.00 0.00 0.00 0.01 0.06 0.13 0.02 0.01 0.00 0.00 0.00 0.00 0.00 0.00 0.00 0.00 0.00 0.00 0.00 0.00 0.00 0.00 0.00 0.00 0.00 0.00 0.01 0.02 0.01 0.00 0.02 0.03 0.02 0.02 0.01 0.00 0.00 0.00 0.00 0.00 0.00 0.00 0.00 0.00 0.00 0.00 0.00
0.00 0.00 0.00 0.00 0.00 0.02 0.03 0.03 0.02 0.01 0.00 0.00 0.00 0.00 0.00 0.00 0.00 0.00 0.00 0.00 0.00 0.00 0.00 0.00 0.00 0.00 0.00 0.00 0.00 0.01 0.02 0.02 0.02 0.03 0.04 0.04 0.03 0.02 0.01 0.00 0.00 0.00 0.00 0.00 0.00 0.00 0.00 0.00 0.00
0.00 0.00 0.00 0.00 0.00 0.02 0.03 0.02 0.01 0.01 0.00 0.00 0.00 0.00 0.00 0.00 0.00 0.00 0.00 0.00 0.00 0.00 0.00 0.00 0.00 0.00 0.00 0.00 0.00 0.00 0.01 0.02 0.01 0.01 0.01 0.01 0.01 0.02 0.01 0.00 0.00 0.00 0.00 0.00 0.00 0.00 0.00 0.00 0.00
0.00 0.00 0.00 0.00 0.00 0.01 0.02 0.02 0.02 0.02 0.00 0.00 0.00 0.00 0.00 0.00 0.00 0.00 0.00 0.00 0.00 0.00 0.00 0.00 0.00 0.00 0.00 0.00 0.00 0.00 0.00 0.00 0.00 0.00 0.00 0.00 0.00 0.00 0.00 0.00 0.00 0.00 0.00 0.00 0.00 0.00 0.00 0.00 0.00
0.00 0.00 0.00 0.00 0.00 0.00 0.00 0.01 0.01 0.01 0.00 0.00 0.00 0.00 0.00 0.00 0.00 0.00 0.00 0.00 0.00 0.00 0.00 0.00 0.00 0.00 0.00 0.00 0.00 0.00 0.00 0.00 0.00 0.00 0.00 0.00 0.00 0.00 0.00 0.00 0.00 0.00 0.00 0.00 0.00 0.00 0.00 0.00 0.00
0.00 0.00 0.00 0.00 0.00 0.00 0.00 0.00 0.00 0.00 0.01 0.01 0.00 0.01 0.01 0.00 0.00 0.00 0.00 0.00 0.00 0.00 0.00 0.00 0.00 0.00 0.00 0.00 0.00 0.00 0.00 0.00 0.00 0.00 0.00 0.00 0.00 0.00 0.00 0.00 0.00 0.00 0.00 0.00 0.00 0.00 0.00 0.00 0.00
0.00 0.00 0.00 0.00 0.00 0.00 0.00 0.00 0.00 0.01 0.01 0.02 0.00 0.01 0.01 0.00 0.00 0.00 0.00 0.00 0.00 0.00 0.00 0.00 0.00 0.00 0.00 0.00 0.00 0.00 0.00 0.00 0.00 0.00 0.00 0.00 0.00 0.00 0.00 0.01 0.01 0.00 0.00 0.00 0.00 0.00 0.00 0.00 0.00
0.00 0.00 0.00 0.00 0.00 0.00 0.00 0.00 0.00 0.01 0.02 0.01 0.01 0.01 0.00 0.00 0.00 0.00 0.00 0.00 0.00 0.00 0.00 0.00 0.00 0.00 0.00 0.00 0.00 0.00 0.00 0.00 0.00 0.00 0.00 0.00 0.00 0.00 0.00 0.00 0.01 0.02 0.01 0.01 0.01 0.00 0.01 0.02 0.01
0.00 0.00 0.00 0.00 0.00 0.00 0.00 0.00 0.00 0.01 0.03 0.03 0.02 0.01 0.00 0.00 0.00 0.00 0.00 0.00 0.00 0.00 0.00 0.00 0.00 0.00 0.00 0.00 0.00 0.00 0.00 0.00 0.00 0.00 0.00 0.00 0.00 0.00 0.00 0.00 0.01 0.02 0.03 0.02 0.02 0.02 0.03 0.03 0.01
0.00 0.00 0.00 0.00 0.00 0.00 0.00 0.00 0.00 0.01 0.06 0.11 0.10 0.05 0.01 0.00 0.00 0.00 0.00 0.00 0.00 0.00 0.00 0.00 0.00 0.00 0.00 0.00 0.00 0.00 0.00 0.00 0.00 0.00 0.00 0.00 0.00 0.00 0.00 0.00 0.00 0.00 0.01 0.01 0.00 0.01 0.01 0.01 0.00
0.00 0.00 0.00 0.00 0.00 0.00 0.00 0.00 0.00 0.00 0.04 0.16 0.23 0.17 0.02 0.00 0.00 0.00 0.00 0.00 0.00 0.00 0.00 0.00 0.00 0.00 0.00 0.00 0.00 0.00 0.00 0.00 0.00 0.00 0.00 0.00 0.00 0.00 0.00 0.00 0.00 0.00 0.00 0.00 0.00 0.01 0.02 0.01 0.01
0.00 0.00 0.00 0.00 0.00 0.00 0.00 0.00 0.00 0.00 0.02 0.13 0.22 0.20 0.06 0.01 0.00 0.00 0.00 0.00 0.00 0.00 0.00 0.00 0.00 0.00 0.00 0.00 0.00 0.00 0.00 0.00 0.00 0.00 0.00 0.00 0.00 0.00 0.00 0.00 0.00 0.00 0.00 0.01 0.01 0.01 0.02 0.01 0.02
0.00 0.00 0.00 0.00 0.00 0.00 0.00 0.00 0.00 0.00 0.01 0.08 0.17 0.17 0.07 0.02 0.01 0.00 0.00 0.00 0.00 0.00 0.00 0.00 0.00 0.00 0.00 0.00 0.00 0.00 0.00 0.00 0.00 0.00 0.00 0.00 0.00 0.00 0.00 0.00 0.00 0.00 0.00 0.01 0.02 0.03 0.03 0.03 0.03
0.00 0.00 0.00 0.00 0.00 0.00 0.00 0.00 0.00 0.00 0.00 0.02 0.09 0.19 0.15 0.11 0.11 0.07 0.02 0.01 0.01 0.00 0.00 0.00 0.00 0.00 0.00 0.00 0.00 0.00 0.00 0.00 0.00 0.00 0.00 0.00 0.00 0.00 0.01 0.01 0.01 0.01 0.01 0.02 0.02 0.05 0.05 0.04 0.02
0.00 0.00 0.00 0.00 0.00 0.00 0.00 0.00 0.00 0.00 0.01 0.04 0.09 0.19 0.29 0.35 0.41 0.35 0.17 0.06 0.03 0.02 0.01 0.01 0.00 0.00 0.00 0.00 0.00 0.00 0.00 0.00 0.00 0.01 0.01 0.02 0.02 0.03 0.04 0.04 0.04 0.06 0.06 0.04 0.04 0.05 0.07 0.08 0.05
0.00 0.00 0.00 0.00 0.00 0.00 0.00 0.00 0.00 0.00 0.02 0.04 0.12 0.31 0.48 0.71 0.88 0.68 0.37 0.13 0.07 0.05 0.04 0.04 0.03 0.02 0.01 0.00 0.00 0.00 0.00 0.00 0.00 0.02 0.04 0.05 0.05 0.07 0.07 0.07 0.07 0.09 0.09 0.07 0.07 0.07 0.11 0.11 0.08
0.00 0.00 0.00 0.00 0.00 0.00 0.00 0.00 0.00 0.00 0.01 0.03 0.09 0.29 0.53 0.57 0.62 0.54 0.30 0.20 0.17 0.22 0.19 0.17 0.17 0.10 0.05 0.02 0.01 0.01 0.01 0.00 0.01 0.04 0.06 0.06 0.04 0.05 0.04 0.03 0.05 0.07 0.08 0.09 0.11 0.12 0.13 0.13 0.15
0.00 0.00 0.00 0.00 0.00 0.00 0.00 0.00 0.00 0.00 0.00 0.01 0.01 0.05 0.17 0.26 0.29 0.29 0.24 0.24 0.38 0.52 0.49 0.41 0.28 0.17 0.10 0.06 0.04 0.03 0.03 0.02 0.03 0.04 0.04 0.03 0.02 0.01 0.01 0.01 0.01 0.05 0.10 0.13 0.13 0.19 0.20 0.17 0.20
0.00 0.00 0.00 0.00 0.00 0.00 0.00 0.00 0.00 0.00 0.00 0.01 0.01 0.02 0.05 0.12 0.19 0.24 0.27 0.28 0.34 0.37 0.40 0.43 0.36 0.24 0.18 0.14 0.10 0.06 0.05 0.05 0.03 0.02 0.01 0.01 0.01 0.01 0.00 0.00 0.01 0.03 0.09 0.15 0.17 0.19 0.18 0.14 0.15
0.00 0.00 0.00 0.00 0.00 0.00 0.00 0.00 0.00 0.00 0.00 0.00 0.01 0.02 0.05 0.10 0.15 0.21 0.25 0.26 0.28 0.29 0.34 0.39 0.35 0.27 0.22 0.20 0.15 0.09 0.06 0.04 0.02 0.01 0.00 0.00 0.00 0.00 0.00 0.01 0.01 0.03 0.06 0.10 0.13 0.16 0.18 0.16 0.15
0.00 0.00 0.00 0.00 0.00 0.00 0.00 0.00 0.00 0.00 0.00 0.01 0.04 0.07 0.14 0.19 0.21 0.21 0.22 0.19 0.18 0.19 0.22 0.23 0.21 0.18 0.16 0.13 0.11 0.07 0.04 0.02 0.01 0.00 0.00 0.00 0.00 0.00 0.01 0.01 0.02 0.04 0.07 0.10 0.13 0.16 0.20 0.20 0.17
0.00 0.00 0.00 0.00 0.00 0.00 0.00 0.00 0.00 0.00 0.00 0.01 0.06 0.13 0.25 0.34 0.35 0.33 0.29 0.22 0.16 0.12 0.11 0.10 0.10 0.09 0.07 0.05 0.04 0.03 0.01 0.01 0.00 0.00 0.00 0.00 0.00 0.00 0.01 0.02 0.03 0.05 0.08 0.14 0.19 0.21 0.20 0.20 0.18
0.00 0.00 0.01 0.00 0.00 0.00 0.00 0.00 0.00 0.01 0.01 0.04 0.13 0.22 0.35 0.40 0.36 0.33 0.29 0.23 0.15 0.08 0.05 0.04 0.03 0.03 0.03 0.02 0.02 0.01 0.00 0.00 0.00 0.00 0.00 0.00 0.00 0.01 0.01 0.02 0.03 0.05 0.09 0.14 0.16 0.19 0.19 0.19 0.18
0.02 0.02 0.04 0.04 0.01 0.00 0.00 0.00 0.04 0.06 0.10 0.21 0.33 0.41 0.40 0.35 0.30 0.26 0.22 0.19 0.14 0.08 0.04 0.02 0.02 0.02 0.02 0.02 0.02 0.01 0.00 0.00 0.00 0.00 0.00 0.00 0.00 0.00 0.01 0.01 0.02 0.04 0.07 0.10 0.12 0.13 0.14 0.15 0.14
0.01 0.02 0.02 0.05 0.05 0.03 0.00 0.01 0.04 0.08 0.19 0.43 0.62 0.63 0.54 0.39 0.28 0.21 0.16 0.12 0.10 0.07 0.05 0.04 0.03 0.02 0.02 0.01 0.01 0.00 0.00 0.00 0.00 0.00 0.00 0.00 0.00 0.00 0.00 0.01 0.01 0.03 0.05 0.07 0.10 0.14 0.17 0.18 0.19
0.01 0.02 0.02 0.06 0.08 0.07 0.03 0.02 0.05 0.13 0.22 0.38 0.54 0.55 0.44 0.31 0.22 0.16 0.12 0.09 0.08 0.06 0.05 0.04 0.04 0.02 0.01 0.01 0.00 0.00 0.00 0.00 0.00 0.00 0.00 0.00 0.00 0.00 0.00 0.00 0.01 0.02 0.03 0.04 0.06 0.09 0.13 0.18 0.20
0.01 0.02 0.05 0.11 0.14 0.16 0.13 0.08 0.08 0.13 0.20 0.28 0.35 0.37 0.29 0.20 0.12 0.10 0.09 0.09 0.07 0.05 0.04 0.04 0.04 0.03 0.02 0.01 0.00 0.00 0.00 0.00 0.00 0.00 0.00 0.00 0.00 0.00 0.00 0.00 0.01 0.01 0.02 0.03 0.04 0.04 0.06 0.08 0.10
0.00 0.00 0.01 0.04 0.07 0.09 0.11 0.09 0.08 0.11 0.16 0.22 0.26 0.26 0.21 0.16 0.13 0.13 0.13 0.09 0.05 0.03 0.03 0.03 0.04 0.03 0.01 0.01 0.01 0.00 0.00 0.00 0.00 0.00 0.00 0.00 0.00 0.00 0.00 0.00 0.00 0.01 0.01 0.01 0.02 0.02 0.02 0.02 0.03
MSLP
1009.54 1010.58 1011.75 1012.83 1013.61 1013.94 1013.78 1013.21 1012.37 1011.51 1010.82 1010.48 1010.56 1011.02 1011.73 1012.52 1013.21 1013.66 1013.81 1013.69 1013.41 1013.09 1012.88 1012.86 1013.08 1013.48 1013.98 1014.49 1014.91 1015.18 1015.31 1015.33 1015.30 1015.29 1015.36 1015.51 1015.73 1015.99 1016.22 1016.38 1016.47 1016.47 1016.42 1016.36 1016.32 1016.32 1016.37 1016.45 1016.54
1009.91 1011.06 1012.26 1013.27 1013.90 1014.03 1013.65 1012.87 1011.86 1010.86 1010.11 1009.73 1009.80 1010.26 1010.98 1011.77 1012.47 1012.94 1013.13 1013.09 1012.90 1012.69 1012.58 1012.65 1012.93 1013.36 1013.88 1014.38 1014.79 1015.08 1015.23 1015.29 1015.32 1015.38 1015.49 1015.66 1015.88 1016.10 1016.28 1016.39 1016.42 1016.39 1016.32 1016.26 1016.24 1016.26 1016.32 1016.41 1016.51
1010.41 1011.61 1012.76 1013.63 1014.06 1013.97 1013.37 1012.41 1011.29 1010.24 1009.48 1009.13 1009.23 1009.72 1010.45 1011.24 1011.93 1012.40 1012.61 1012.61 1012.49 1012.37 1012.34 1012.49 1012.81 1013.26 1013.77 1014.25 1014.65 1014.93 1015.11 1015.21 1015.30 1015.41 1015.56 1015.76 1015.96 1016.15 1016.27 1016.32 1016.30 1016.24 1016.18 1016.13 1016.14 1016.20 1016.29 1016.40 1016.49
1011.01 1012.18 1013.21 1013.88 1014.08 1013.75 1012.97 1011.89 1010.72 1009.69 1009.00 1008.74 1008.92 1009.45 1010.19 1010.97 1011.63 1012.07 1012.28 1012.31 1012.23 1012.17 1012.22 1012.41 1012.75 1013.19 1013.67 1014.12 1014.49 1014.75 1014.94 1015.08 1015.22 1015.38 1015.58 1015.79 1015.99 1016.14 1016.22 1016.22 1016.17 1016.10 1016.04 1016.03 1016.07 1016.17 1016.30 1016.43 1016.52
1011.66 1012.73 1013.56 1014.00 1013.95 1013.41 1012.48 1011.34 1010.19 1009.26 1008.70 1008.57 1008.85 1009.44 1010.19 1010.94 1011.55 1011.95 1012.14 1012.16 1012.12 1012.11 1012.19 1012.41 1012.76 1013.18 1013.61 1014.00 1014.32 1014.56 1014.75 1014.91 1015.09 1015.30 1015.54 1015.77 1015.98 1016.11 1016.16 1016.14 1016.07 1015.99 1015.95 1015.97 1016.06 1016.20 1016.36 1016.50 1016.59
1012.29 1013.18 1013.78 1013.95 1013.66 1012.94 1011.92 1010.78 1009.72 1008.94 1008.55 1008.58 1008.97 1009.62 1010.37 1011.07 1011.62 1011.96 1012.11 1012.13 1012.11 1012.14 1012.26 1012.50 1012.84 1013.22 1013.59 1013.91 1014.17 1014.37 1014.54 1014.72 1014.94 1015.19 1015.47 1015.73 1015.95 1016.08 1016.12 1016.08 1016.00 1015.93 1015.91 1015.97 1016.09 1016.26 1016.44 1016.58 1016.67
1012.80 1013.47 1013.81 1013.72 1013.21 1012.36 1011.30 1010.22 1009.30 1008.71 1008.50 1008.69 1009.19 1009.88 1010.61 1011.25 1011.73 1012.00 1012.12 1012.14 1012.14 1012.21 1012.37 1012.63 1012.95 1013.29 1013.60 1013.85 1014.04 1014.19 1014.34 1014.53 1014.77 1015.06 1015.38 1015.68 1015.91 1016.05 1016.09 1016.04 1015.96 1015.90 1015.90 1015.97 1016.11 1016.30 1016.49 1016.63 1016.69
1013.12 1013.56 1013.64 1013.33 1012.65 1011.71 1010.66 1009.68 1008.92 1008.52 1008.49 1008.82 1009.39 1010.10 1010.79 1011.37 1011.77 1011.99 1012.08 1012.11 1012.15 1012.27 1012.47 1012.76 1013.08 1013.38 1013.63 1013.81 1013.93 1014.03 1014.16 1014.35 1014.61 1014.93 1015.28 1015.61 1015.86 1016.00 1016.04 1015.99 1015.92 1015.86 1015.86 1015.94 1016.09 1016.27 1016.45 1016.58 1016.62
1013.24 1013.45 1013.31 1012.80 1012.00 1011.03 1010.04 1009.18 1008.59 1008.35 1008.48 1008.91 1009.53 1010.21 1010.85 1011.36 1011.69 1011.87 1011.95 1012.01 1012.11 1012.28 1012.54 1012.85 1013.17 1013.45 1013.65 1013.77 1013.84 1013.90 1014.00 1014.18 1014.45 1014.80 1015.17 1015.50 1015.76 1015.91 1015.95 1015.90 1015.82 1015.76 1015.76 1015.83 1015.98 1016.15 1016.32 1016.42 1016.44
1013.17 1013.19 1012.86 1012.23 1011.36 1010.40 1009.49 1008.76 1008.32 1008.23 1008.46 1008.94 1009.57 1010.22 1010.79 1011.22 1011.50 1011.66 1011.75 1011.85 1012.00 1012.24 1012.55 1012.90 1013.22 1013.48 1013.64 1013.72 1013.75 1013.78 1013.86 1014.03 1014.30 1014.64 1015.01 1015.35 1015.61 1015.76 1015.79 1015.74 1015.66 1015.59 1015.59 1015.65 1015.78 1015.94 1016.08 1016.16 1016.16
1012.98 1012.85 1012.41 1011.70 1010.82 1009.90 1009.08 1008.48 1008.16 1008.17 1008.46 1008.95 1009.54 1010.13 1010.64 1011.01 1011.25 1011.40 1011.52 1011.66 1011.88 1012.17 1012.52 1012.89 1013.21 1013.45 1013.59 1013.64 1013.64 1013.64 1013.70 1013.86 1014.12 1014.45 1014.81 1015.14 1015.38 1015.52 1015.55 1015.50 1015.42 1015.35 1015.35 1015.40 1015.52 1015.66 1015.79 1015.85 1015.83
1012.78 1012.55 1012.03 1011.30 1010.45 1009.60 1008.88 1008.37 1008.14 1008.20 1008.50 1008.97 1009.51 1010.03 1010.47 1010.80 1011.02 1011.18 1011.32 1011.51 1011.77 1012.09 1012.46 1012.83 1013.14 1013.36 1013.47 1013.50 1013.48 1013.47 1013.53 1013.67 1013.91 1014.22 1014.55 1014.85 1015.07 1015.20 1015.23 1015.19 1015.12 1015.07 1015.07 1015.13 1015.24 1015.37 1015.48 1015.53 1015.49
1012.66 1012.37 1011.82 1011.11 1010.31 1009.53 1008.89 1008.46 1008.27 1008.34 1008.62 1009.03 1009.50 1009.96 1010.35 1010.65 1010.87 1011.05 1011.23 1011.44 1011.71 1012.04 1012.39 1012.72 1013.00 1013.19 1013.28 1013.30 1013.28 1013.27 1013.32 1013.45 1013.66 1013.93 1014.22 1014.49 1014.69 1014.81 1014.84 1014.82 1014.78 1014.76 1014.79 1014.87 1014.98 1015.10 1015.20 1015.23 1015.19
1012.68 1012.36 1011.82 1011.13 1010.39 1009.69 1009.11 1008.71 1008.53 1008.57 1008.79 1009.14 1009.55 1009.95 1010.31 1010.61 1010.85 1011.06 1011.25 1011.48 1011.73 1012.02 1012.31 1012.59 1012.80 1012.95 1013.02 1013.03 1013.03 1013.03 1013.08 1013.20 1013.39 1013.62 1013.87 1014.10 1014.27 1014.38 1014.43 1014.44 1014.44 1014.47 1014.53 1014.63 1014.76 1014.88 1014.97 1014.99 1014.94
1012.84 1012.51 1011.99 1011.35 1010.66 1010.01 1009.46 1009.07 1008.86 1008.84 1008.99 1009.26 1009.61 1009.98 1010.34 1010.66 1010.93 1011.16 1011.38 1011.58 1011.80 1012.01 1012.22 1012.41 1012.56 1012.66 1012.72 1012.74 1012.76 1012.79 1012.86 1012.97 1013.14 1013.33 1013.52 1013.70 1013.85 1013.95 1014.01 1014.06 1014.11 1014.19 1014.29 1014.42 1014.55 1014.67 1014.75 1014.76 1014.70
1013.11 1012.77 1012.27 1011.67 1011.03 1010.41 1009.87 1009.45 1009.19 1009.09 1009.15 1009.35 1009.65 1010.00 1010.37 1010.73 1011.04 1011.31 1011.53 1011.71 1011.86 1011.99 1012.11 1012.20 1012.29 1012.35 1012.41 1012.46 1012.52 1012.59 1012.69 1012.81 1012.94 1013.09 1013.23 1013.35 1013.46 1013.54 1013.62 1013.70 1013.79 1013.91 1014.04 1014.19 1014.33 1014.45 1014.51 1014.51 1014.44
1013.40 1013.06 1012.59 1012.03 1011.43 1010.83 1010.28 1009.82 1009.48 1009.28 1009.25 1009.37 1009.62 1009.96 1010.35 1010.75 1011.12 1011.42 1011.65 1011.80 1011.89 1011.93 1011.95 1011.97 1012.00 1012.05 1012.12 1012.22 1012.34 1012.47 1012.61 1012.74 1012.85 1012.95 1013.03 1013.09 1013.14 1013.20 1013.27 1013.36 1013.48 1013.62 1013.77 1013.92 1014.05 1014.15 1014.19 1014.18 1014.10
1013.61 1013.29 1012.87 1012.37 1011.82 1011.25 1010.68 1010.16 1009.73 1009.43 1009.29 1009.32 1009.51 1009.84 1010.25 1010.70 1011.11 1011.45 1011.68 1011.81 1011.85 1011.82 1011.76 1011.72 1011.72 1011.78 1011.90 1012.07 1012.27 1012.47 1012.65 1012.79 1012.88 1012.93 1012.94 1012.92 1012.91 1012.92 1012.96 1013.04 1013.15 1013.29 1013.43 1013.57 1013.67 1013.74 1013.76 1013.74 1013.68
1013.70 1013.44 1013.10 1012.69 1012.22 1011.68 1011.10 1010.53 1010.00 1009.58 1009.33 1009.25 1009.38 1009.68 1010.09 1010.56 1011.01 1011.38 1011.62 1011.74 1011.74 1011.66 1011.56 1011.49 1011.49 1011.58 1011.77 1012.02 1012.31 1012.59 1012.82 1012.97 1013.04 1013.03 1012.96 1012.86 1012.77 1012.71 1012.70 1012.74 1012.82 1012.93 1013.04 1013.13 1013.19 1013.22 1013.21 1013.19 1013.15
1013.65 1013.50 1013.30 1013.03 1012.67 1012.20 1011.64 1011.02 1010.40 1009.86 1009.47 1009.28 1009.31 1009.55 1009.94 1010.40 1010.87 1011.25 1011.51 1011.61 1011.59 1011.49 1011.37 1011.30 1011.32 1011.47 1011.73 1012.07 1012.45 1012.80 1013.08 1013.24 1013.28 1013.22 1013.07 1012.89 1012.71 1012.57 1012.49 1012.47 1012.50 1012.54 1012.59 1012.62 1012.63 1012.62 1012.59 1012.57 1012.56
1013.51 1013.54 1013.54 1013.47 1013.27 1012.91 1012.39 1011.75 1011.05 1010.39 1009.86 1009.53 1009.43 1009.57 1009.90 1010.33 1010.77 1011.15 1011.41 1011.51 1011.48 1011.37 1011.25 1011.19 1011.24 1011.44 1011.77 1012.19 1012.64 1013.05 1013.37 1013.54 1013.56 1013.44 1013.23 1012.97 1012.71 1012.49 1012.33 1012.24 1012.20 1012.18 1012.15 1012.12 1012.06 1012.00 1011.95 1011.93 1011.97
1013.39 1013.65 1013.91 1014.08 1014.09 1013.88 1013.44 1012.80 1012.03 1011.25 1010.57 1010.08 1009.83 1009.84 1010.06 1010.42 1010.82 1011.17 1011.40 1011.49 1011.46 1011.34 1011.23 1011.18 1011.26 1011.49 1011.87 1012.34 1012.84 1013.29 1013.62 1013.80 1013.80 1013.65 1013.38 1013.06 1012.74 1012.46 1012.23 1012.07 1011.96 1011.86 1011.77 1011.66 1011.55 1011.44 1011.37 1011.36 1011.44
1013.40 1013.93 1014.48 1014.93 1015.17 1015.13 1014.78 1014.15 1013.33 1012.44 1011.61 1010.96 1010.54 1010.40 1010.49 1010.74 1011.06 1011.36 1011.55 1011.62 1011.57 1011.44 1011.32 1011.27 1011.35 1011.60 1011.98 1012.46 1012.98 1013.44 1013.78 1013.95 1013.94 1013.77 1013.49 1013.14 1012.78 1012.46 1012.19 1011.98 1011.81 1011.65 1011.49 1011.33 1011.16 1011.01 1010.92 1010.91 1011.01
1013.61 1014.42 1015.26 1015.97 1016.44 1016.56 1016.31 1015.71 1014.86 1013.87 1012.90 1012.08 1011.50 1011.19 1011.14 1011.27 1011.49 1011.72 1011.86 1011.89 1011.81 1011.67 1011.53 1011.45 1011.51 1011.73 1012.08 1012.54 1013.03 1013.47 1013.80 1013.97 1013.97 1013.80 1013.52 1013.18 1012.82 1012.49 1012.20 1011.97 1011.76 1011.56 1011.36 1011.14 1010.93 1010.75 1010.63 1010.62 1010.72
1014.07 1015.13 1016.20 1017.14 1017.79 1018.05 1017.88 1017.30 1016.42 1015.35 1014.27 1013.31 1012.58 1012.12 1011.92 1011.93 1012.05 1012.20 1012.28 1012.27 1012.16 1011.99 1011.81 1011.70 1011.71 1011.87 1012.16 1012.56 1013.00 1013.40 1013.71 1013.87 1013.88 1013.74 1013.49 1013.19 1012.86 1012.55 1012.28 1012.04 1011.82 1011.60 1011.36 1011.11 1010.87 1010.65 1010.51 1010.47 1010.56
1014.74 1015.97 1017.21 1018.28 1019.05 1019.39 1019.26 1018.70 1017.79 1016.67 1015.50 1014.45 1013.60 1013.02 1012.71 1012.60 1012.64 1012.71 1012.74 1012.69 1012.55 1012.34 1012.13 1011.97 1011.92 1012.01 1012.22 1012.54 1012.90 1013.25 1013.53 1013.69 1013.72 1013.62 1013.43 1013.18 1012.92 1012.65 1012.41 1012.19 1011.97 1011.74 1011.48 1011.21 1010.94 1010.71 1010.53 1010.46 1010.52
1015.52 1016.83 1018.12 1019.24 1020.02 1020.38 1020.25 1019.68 1018.76 1017.61 1016.41 1015.30 1014.39 1013.74 1013.34 1013.16 1013.13 1013.15 1013.14 1013.06 1012.91 1012.69 1012.45 1012.25 1012.14 1012.15 1012.28 1012.51 1012.80 1013.09 1013.33 1013.49 1013.54 1013.50 1013.37 1013.20 1013.00 1012.79 1012.59 1012.39 1012.18 1011.95 1011.69 1011.41 1011.13 1010.87 1010.67 1010.57 1010.57
1016.30 1017.57 1018.81 1019.85 1020.57 1020.86 1020.70 1020.11 1019.19 1018.05 1016.86 1015.76 1014.84 1014.16 1013.74 1013.52 1013.45 1013.44 1013.42 1013.34 1013.18 1012.97 1012.73 1012.51 1012.37 1012.32 1012.38 1012.53 1012.74 1012.97 1013.18 1013.33 1013.41 1013.41 1013.35 1013.25 1013.11 1012.97 1012.81 1012.63 1012.44 1012.21 1011.95 1011.66 1011.37 1011.10 1010.88 1010.75 1010.71
1016.93 1018.06 1019.14 1020.01 1020.58 1020.77 1020.54 1019.93 1019.03 1017.94 1016.82 1015.78 1014.91 1014.26 1013.85 1013.64 1013.56 1013.55 1013.54 1013.48 1013.35 1013.17 1012.95 1012.75 1012.59 1012.52 1012.53 1012.62 1012.77 1012.95 1013.13 1013.27 1013.37 1013.41 1013.40 1013.35 1013.27 1013.17 1013.04 1012.89 1012.70 1012.48 1012.22 1011.93 1011.64 1011.38 1011.16 1011.00 1010.93
1017.31 1018.22 1019.06 1019.72 1020.09 1020.14 1019.83 1019.22 1018.36 1017.37 1016.36 1015.44 1014.67 1014.11 1013.75 1013.56 1013.51 1013.51 1013.52 1013.50 1013.42 1013.29 1013.12 1012.96 1012.83 1012.75 1012.74 1012.80 1012.90 1013.04 1013.18 1013.31 1013.41 1013.48 1013.51 1013.50 1013.46 1013.39 1013.29 1013.15 1012.96 1012.74 1012.48 1012.21 1011.93 1011.68 1011.47 1011.32 1011.23
Thickness
5843 5843 5839 5828 5809 5793 5785 5800 5824 5837 5840 5848 5852 5844 5832 5822 5811 5798 5821 5827 5825 5819 5816 5813 5812 5809 5807 5804 5802 5801 5799 5797 5795 5793 5791 5790 5789 5788 5787 5784 5781 5779 5777 5775 5773 5772 5770 5769 5766
5845 5844 5833 5816 5796 5778 5779 5803 5820 5837 5847 5855 5852 5845 5835 5825 5829 5824 5826 5827 5827 5823 5819 5816 5814 5812 5809 5807 5805 5803 5801 5798 5796 5794 5791 5789 5788 5787 5786 5784 5782 5779 5777 5775 5773 5772 5771 5769 5767
5846 5842 5822 5806 5793 5788 5793 5818 5833 5846 5858 5860 5848 5845 5837 5828 5830 5829 5831 5830 5827 5824 5821 5818 5816 5814 5812 5809 5807 5805 5803 5800 5797 5795 5793 5791 5789 5787 5786 5784 5783 5780 5778 5776 5774 5772 5770 5768 5767
5840 5829 5817 5798 5794 5812 5822 5834 5844 5844 5851 5855 5847 5834 5839 5845 5841 5837 5834 5830 5827 5824 5821 5818 5817 5815 5814 5812 5809 5808 5805 5802 5800 5797 5794 5792 5790 5788 5786 5785 5784 5782 5779 5777 5775 5772 5770 5769 5767
5834 5814 5797 5788 5800 5826 5841 5851 5853 5846 5845 5847 5844 5827 5828 5844 5847 5840 5835 5831 5826 5822 5821 5819 5818 5817 5815 5814 5811 5809 5807 5804 5801 5798 5795 5793 5791 5789 5787 5786 5785 5783 5780 5778 5775 5773 5770 5768 5767
5817 5805 5784 5781 5803 5829 5844 5856 5855 5846 5842 5842 5840 5826 5826 5841 5839 5836 5835 5831 5828 5824 5821 5819 5818 5817 5816 5814 5812 5809 5807 5804 5801 5798 5795 5793 5791 5789 5788 5786 5784 5783 5781 5778 5776 5773 5771 5769 5767
5810 5798 5788 5796 5803 5818 5841 5858 5853 5844 5841 5843 5846 5824 5824 5835 5840 5837 5834 5832 5828 5825 5821 5819 5818 5817 5815 5813 5811 5809 5806 5804 5801 5799 5796 5794 5792 5789 5787 5785 5783 5781 5779 5777 5775 5773 5771 5769 5767
5821 5800 5792 5795 5802 5813 5844 5856 5859 5850 5845 5855 5851 5828 5820 5835 5843 5837 5830 5828 5825 5823 5821 5819 5818 5817 5815 5812 5810 5807 5805 5802 5800 5798 5795 5793 5790 5788 5785 5783 5781 5779 5777 5775 5773 5771 5770 5769 5767
5826 5792 5781 5794 5806 5817 5842 5847 5853 5859 5853 5853 5854 5846 5845 5845 5842 5832 5823 5821 5819 5819 5819 5818 5817 5815 5813 5811 5808 5806 5803 5801 5798 5796 5794 5791 5788 5786 5784 5782 5779 5778 5776 5774 5771 5769 5768 5768 5767
5808 5783 5793 5813 5822 5824 5837 5843 5847 5842 5836 5837 5840 5844 5845 5842 5835 5826 5819 5815 5815 5815 5816 5817 5815 5813 5811 5809 5807 5804 5802 5799 5796 5794 5792 5790 5787 5784 5783 5781 5779 5777 5775 5773 5771 5768 5767 5766 5766
5808 5799 5812 5822 5830 5831 5833 5842 5850 5834 5822 5830 5831 5832 5833 5833 5829 5824 5820 5818 5818 5818 5817 5816 5815 5812 5810 5808 5805 5801 5799 5796 5794 5792 5790 5788 5785 5783 5781 5780 5778 5776 5774 5772 5770 5767 5766 5765 5765
5805 5812 5819 5824 5833 5832 5836 5841 5837 5833 5831 5841 5843 5838 5832 5826 5824 5823 5820 5818 5818 5816 5817 5816 5814 5811 5809 5807 5803 5799 5797 5795 5792 5791 5789 5787 5785 5782 5780 5779 5778 5777 5774 5772 5769 5767 5765 5764 5763
5799 5808 5821 5827 5831 5834 5838 5837 5832 5829 5839 5840 5842 5839 5832 5826 5823 5822 5821 5819 5816 5814 5814 5814 5813 5809 5806 5804 5801 5798 5795 5794 5792 5790 5788 5786 5785 5783 5781 5779 5778 5776 5773 5770 5767 5765 5763 5763 5762
5800 5807 5815 5821 5825 5833 5831 5833 5825 5823 5834 5832 5832 5831 5832 5828 5824 5820 5817 5815 5814 5813 5813 5813 5811 5808 5805 5802 5799 5797 5794 5793 5791 5789 5788 5787 5785 5783 5781 5779 5777 5775 5771 5768 5766 5764 5761 5760 5761
5802 5794 5801 5813 5820 5827 5828 5816 5821 5825 5827 5822 5823 5826 5827 5824 5821 5817 5815 5813 5814 5813 5812 5809 5808 5805 5802 5799 5796 5794 5793 5791 5789 5788 5787 5784 5782 5781 5779 5777 5775 5773 5771 5767 5765 5762 5760 5757 5757
5783 5776 5774 5800 5816 5823 5810 5791 5819 5822 5819 5813 5815 5817 5817 5815 5813 5813 5811 5810 5811 5810 5808 5806 5806 5801 5798 5795 5792 5790 5788 5786 5784 5783 5782 5780 5779 5777 5775 5773 5771 5771 5768 5765 5762 5759 5756 5754 5753
5754 5750 5760 5781 5807 5809 5799 5788 5816 5816 5813 5806 5807 5807 5804 5801 5801 5802 5804 5803 5802 5803 5802 5800 5800 5796 5793 5790 5787 5784 5782 5780 5779 5777 5776 5775 5774 5772 5770 5768 5767 5766 5764 5762 5759 5757 5753 5751 5750
5733 5742 5750 5761 5788 5794 5785 5787 5808 5810 5808 5802 5800 5797 5793 5791 5792 5794 5796 5797 5797 5797 5796 5795 5793 5790 5787 5784 5780 5777 5775 5773 5772 5771 5770 5769 5769 5768 5766 5764 5762 5761 5759 5757 5755 5753 5751 5749 5748
5746 5743 5744 5761 5785 5784 5777 5782 5800 5805 5800 5793 5790 5789 5785 5785 5789 5793 5792 5792 5793 5791 5788 5787 5783 5780 5778 5774 5770 5767 5764 5764 5764 5764 5763 5763 5763 5762 5761 5759 5758 5756 5754 5753 5752 5749 5746 5745 5745
5751 5745 5745 5760 5777 5779 5774 5779 5795 5800 5797 5795 5789 5784 5781 5778 5778 5783 5787 5788 5786 5781 5777 5776 5772 5770 5769 5767 5765 5762 5759 5757 5756 5755 5754 5754 5754 5754 5754 5752 5751 5751 5749 5749 5747 5745 5742 5742 5741
5748 5744 5743 5747 5760 5767 5762 5756 5772 5789 5795 5792 5789 5785 5781 5778 5775 5776 5776 5776 5774 5769 5766 5764 5760 5758 5759 5759 5757 5754 5751 5748 5745 5744 5744 5745 5746 5746 5747 5747 5746 5745 5743 5742 5741 5740 5737 5735 5736
5731 5751 5752 5748 5736 5728 5739 5718 5749 5766 5771 5775 5775 5772 5768 5767 5765 5765 5765 5764 5762 5759 5757 5753 5749 5747 5747 5747 5746 5743 5738 5734 5734 5734 5735 5736 5737 5738 5740 5740 5740 5740 5739 5737 5736 5736 5734 5731 5728
5739 5751 5746 5742 5729 5719 5726 5714 5728 5751 5750 5754 5756 5754 5752 5749 5748 5747 5750 5753 5753 5751 5747 5744 5740 5737 5736 5736 5736 5732 5729 5727 5726 5726 5725 5726 5729 5730 5731 5732 5733 5733 5733 5732 5731 5730 5729 5727 5725
5742 5734 5725 5715 5704 5689 5708 5706 5705 5727 5735 5742 5741 5737 5734 5732 5731 5729 5729 5732 5735 5737 5736 5734 5730 5728 5728 5727 5725 5723 5720 5717 5716 5716 5716 5718 5720 5721 5721 5722 5723 5724 5724 5724 5723 5723 5722 5721 5720
5723 5696 5673 5670 5663 5670 5698 5696 5696 5714 5721 5727 5724 5719 5716 5717 5716 5713 5711 5711 5713 5719 5721 5724 5721 5718 5718 5717 5714 5713 5711 5709 5708 5708 5709 5709 5709 5709 5709 5710 5711 5712 5713 5713 5713 5713 5712 5711 5711
5710 5693 5663 5651 5649 5662 5684 5681 5686 5696 5701 5705 5705 5702 5701 5700 5701 5700 5699 5699 5698 5701 5706 5711 5711 5709 5708 5706 5704 5703 5702 5701 5701 5701 5700 5699 5698 5698 5698 5698 5699 5700 5701 5701 5702 5701 5701 5700 5700
5700 5681 5681 5659 5654 5649 5659 5673 5680 5685 5685 5685 5684 5683 5682 5683 5686 5686 5688 5688 5687 5686 5691 5696 5696 5696 5696 5695 5694 5693 5693 5692 5690 5689 5689 5688 5687 5687 5688 5688 5688 5689 5690 5690 5690 5690 5690 5690 5690
5695 5681 5663 5650 5638 5629 5640 5648 5653 5661 5663 5664 5664 5664 5667 5668 5670 5672 5675 5676 5674 5674 5678 5682 5683 5684 5685 5685 5684 5682 5681 5680 5678 5677 5676 5676 5676 5676 5677 5678 5679 5680 5681 5681 5681 5680 5681 5680 5680
5682 5668 5653 5640 5637 5621 5613 5627 5660 5654 5652 5652 5651 5654 5655 5656 5656 5659 5662 5662 5662 5663 5665 5669 5671 5672 5673 5673 5672 5671 5669 5668 5667 5666 5666 5666 5666 5667 5668 5669 5670 5672 5673 5673 5673 5673 5672 5671 5670
5688 5670 5653 5637 5626 5620 5608 5618 5656 5647 5643 5641 5640 5642 5644 5645 5646 5650 5652 5652 5652 5653 5655 5658 5659 5660 5662 5662 5661 5660 5659 5659 5657 5657 5656 5657 5658 5659 5659 5660 5661 5663 5664 5665 5666 5666 5666 5664 5662